Location: Regona
(45.2000°N, 9.8167°E)
Time: 12:07:22
(UTC+00:00)

Cosmos 2322 Rocket - Pass Details

Date: 07 June 2020
Orbit: 834 x 850 km, 71.0° (Epoch: 01 July)

Event Time Altitude Azimuth Distance (km) Brightness Sun altitude
Exits shadow 01:29:40 24° 197° (SSW) 1,666 3.2 -15.8°
Maximum altitude 01:33:10 80° 114° (ESE) 852 2.2 -15.5°
Drops below altitude 10° 01:38:47 10° 28° (NNE) 2,453 6.0 -15.0°
Sets 01:41:14 0° 27° (NNE) 3,391 7.2 -14.8°
